GW6905 Weather Reports


time (UTC)temp
F
wind
direction
speed
knots
gust
knots
rain 1hr
in
rain 24hr
in
rain mn
in
humidity
%
barometer
mb
20260507142636 44 42 1.7 1.7 0.00 0.00 0.00 45 1018.8
20260507142133 45 313 4.3 3.5 0.00 0.00 0.00 44 1018.8
20260507141629 44 77 0.9 0.9 0.00 0.00 0.00 48 1018.8
20260507141126 44 107 0.9 0.9 0.00 0.00 0.00 48 1018.9
20260507140622 44 207 5.2 6.1 0.00 0.00 0.00 52 1018.9
20260507140120 44 328 2.6 2.6 0.00 0.00 0.00 49 1018.7
20260507135617 44 162 1.7 1.7 0.00 0.00 0.00 49 1018.8
20260507135115 45 96 0.9 0.9 0.00 0.00 0.00 51 1018.4
20260507134611 45 194 2.6 2.6 0.00 0.00 0.00 49 1018.7
20260507134107 46 96 0.0 0.9 0.00 0.00 0.00 49 1018.6
20260507133603 45 41 1.7 2.6 0.00 0.00 0.00 49 1018.6
20260507133101 44 80 0.9 0.9 0.00 0.00 0.00 50 1018.4
20260507132557 45 42 2.6 2.6 0.00 0.00 0.00 52 1018.4
20260507132054 46 75 0.9 0.9 0.00 0.00 0.00 47 1018.4
20260507131551 44 283 1.7 1.7 0.00 0.00 0.00 51 1018.4
20260507131048 45 187 2.6 2.6 0.00 0.00 0.00 52 1018.7
20260507130544 44 92 0.0 0.0 0.00 0.00 0.00 52 1018.8
20260507130043 45 215 2.6 2.6 0.00 0.00 0.00 51 1018.4
20260507125541 45 166 1.7 1.7 0.00 0.00 0.00 50 1018.7
20260507125038 45 97 2.6 2.6 0.00 0.00 0.00 50 1018.3
20260507124534 44 90 0.9 0.9 0.00 0.00 0.00 52 1018.4
20260507124032 43 124 1.7 1.7 0.00 0.00 0.00 55 1018.3
20260507123530 43 120 0.9 0.9 0.00 0.00 0.00 60 1018.3
20260507123027 42 187 2.6 2.6 0.00 0.00 0.00 62 1018.3
20260507122522 41 170 2.6 2.6 0.00 0.00 0.00 63 1018.3
20260507122018 42 141 1.7 1.7 0.00 0.00 0.00 64 1018.4
20260507121514 42 116 0.9 0.9 0.00 0.00 0.00 64 1018.4
20260507121010 42 77 0.0 0.0 0.00 0.00 0.00 63 1018.1
20260507120506 40 76 0.0 0.0 0.00 0.00 0.00 68 1018.2
20260507120004 39 76 0.0 0.0 0.00 0.00 0.00 68 1018.2
20260507115459 40 76 0.9 0.9 0.00 0.00 0.00 69 1018.3
20260507114955 41 76 0.0 0.0 0.00 0.00 0.00 65 1018.6
20260507114451 38 77 0.0 0.0 0.00 0.00 0.00 70 1018.2
20260507113949 36 76 0.0 0.0 0.00 0.00 0.00 75 1018.3
20260507113446 35 76 0.0 0.0 0.00 0.00 0.00 76 1018.2
20260507112943 34 76 0.0 0.0 0.00 0.00 0.00 76 1018.0
20260507112441 33 76 0.0 0.0 0.00 0.00 0.00 77 1018.0
20260507111937 31 76 0.0 0.0 0.00 0.00 0.00 84 1017.8
20260507111435 30 64 0.0 0.0 0.00 0.00 0.00 85 1018.0
20260507110931 31 84 0.9 0.9 0.00 0.00 0.00 85 1017.7
20260507110427 29 87 0.9 0.0 0.00 0.00 0.00 88 1017.8
20260507105924 28 77 0.0 0.0 0.00 0.00 0.00 86 1017.8
20260507105421 29 63 0.0 0.0 0.00 0.00 0.00 86 1017.7
20260507104917 28 53 0.9 0.9 0.00 0.00 0.00 87 1017.5
20260507104414 28 56 1.7 1.7 0.00 0.00 0.00 87 1017.8
20260507103910 28 55 1.7 1.7 0.00 0.00 0.00 86 1018.0
20260507103407 29 57 1.7 1.7 0.00 0.00 0.00 85 1017.5
20260507102903 29 64 1.7 1.7 0.00 0.00 0.00 85 1017.6
20260507102400 30 64 1.7 1.7 0.00 0.00 0.00 85 1017.6
20260507101856 30 66 1.7 1.7 0.00 0.00 0.00 86 1017.6
20260507101356 30 76 0.9 0.9 0.00 0.00 0.00 87 1017.5
20260507100854 30 76 0.0 0.0 0.00 0.00 0.00 86 1017.5
20260507100351 31 76 0.0 0.0 0.00 0.00 0.00 85 1017.6
20260507095849 31 76 0.0 0.0 0.00 0.00 0.00 83 1017.5
20260507095345 32 76 0.0 0.0 0.00 0.00 0.00 83 1017.7
20260507094843 32 76 0.0 0.0 0.00 0.00 0.00 82 1017.5
20260507094339 32 76 0.0 0.0 0.00 0.00 0.00 81 1017.6
20260507093836 33 77 0.9 0.9 0.00 0.00 0.00 80 1017.6
20260507093335 34 79 0.0 0.0 0.00 0.00 0.00 79 1017.7
20260507092832 34 78 0.0 0.0 0.00 0.00 0.00 81 1017.6
20260507092328 34 77 0.0 0.0 0.00 0.00 0.00 77 1017.5
20260507091825 34 77 0.0 0.0 0.00 0.00 0.00 78 1017.7
20260507091322 35 77 0.9 0.9 0.00 0.00 0.00 78 1017.7
20260507090817 35 77 0.0 0.0 0.00 0.00 0.00 76 1017.7
20260507090314 35 77 0.0 0.0 0.00 0.00 0.00 78 1017.9
20260507085811 36 77 0.0 0.0 0.00 0.00 0.00 76 1017.8
20260507085308 36 77 0.0 0.0 0.00 0.00 0.00 74 1017.6
20260507084805 37 77 0.0 0.0 0.00 0.00 0.00 72 1017.8
20260507084301 37 76 0.0 0.0 0.00 0.00 0.00 70 1017.8
20260507083759 36 73 0.9 0.9 0.00 0.00 0.00 72 1017.8
20260507083255 36 81 0.9 0.9 0.00 0.00 0.00 72 1017.8
20260507082751 36 80 0.9 0.9 0.00 0.00 0.00 75 1017.7
20260507082247 37 91 0.0 0.0 0.00 0.00 0.00 74 1017.8
20260507081744 37 91 0.0 0.0 0.00 0.00 0.00 73 1018.0
20260507081240 37 92 0.0 0.0 0.00 0.00 0.00 72 1017.8
20260507080737 37 92 0.0 0.0 0.00 0.00 0.00 72 1017.9
20260507080233 38 92 0.0 0.0 0.00 0.00 0.00 71 1017.8
20260507075729 38 86 0.9 0.0 0.00 0.00 0.00 70 1017.9
20260507075225 38 78 0.0 0.0 0.00 0.00 0.00 69 1017.9
20260507074721 38 78 0.0 0.0 0.00 0.00 0.00 70 1017.8
20260507074220 38 73 0.0 0.0 0.00 0.00 0.00 69 1017.7
20260507073716 38 74 0.9 0.9 0.00 0.00 0.00 73 1018.0
20260507073213 38 73 0.9 0.9 0.00 0.00 0.00 72 1018.0
20260507072711 38 76 0.9 0.9 0.00 0.00 0.00 71 1017.9
20260507072207 37 81 0.9 0.9 0.00 0.00 0.00 76 1017.9
20260507071705 37 81 0.9 0.9 0.00 0.00 0.00 81 1018.1
20260507071201 37 82 0.9 0.9 0.00 0.00 0.00 82 1018.0
20260507070659 37 82 0.9 0.9 0.00 0.00 0.00 79 1018.1
20260507070155 37 82 0.0 0.0 0.00 0.00 0.00 80 1017.9
20260507065651 37 82 0.9 0.9 0.00 0.00 0.00 77 1017.9
20260507065148 37 88 0.9 0.9 0.00 0.00 0.00 77 1018.0
20260507064646 38 88 0.9 0.9 0.00 0.00 0.00 75 1018.0
20260507064144 38 88 0.9 0.9 0.00 0.00 0.00 71 1018.1
20260507063642 38 88 0.0 0.9 0.00 0.00 0.00 71 1018.1
20260507063138 39 89 0.0 0.0 0.00 0.00 0.00 69 1018.3
20260507062635 39 89 0.0 0.0 0.00 0.00 0.00 65 1018.1
20260507062133 40 89 0.0 0.0 0.00 0.00 0.00 68 1018.1
20260507061630 40 89 0.0 0.0 0.00 0.00 0.00 63 1018.3
20260507061128 41 88 0.0 0.0 0.00 0.00 0.00 61 1018.2
20260507060626 41 88 0.0 0.0 0.00 0.00 0.00 63 1018.2
20260507060122 41 79 0.0 0.0 0.00 0.00 0.00 60 1018.6
20260507055618 41 76 0.0 0.0 0.00 0.00 0.00 58 1018.4
20260507055114 42 61 1.7 0.9 0.00 0.00 0.00 60 1018.3
20260507054610 42 43 1.7 1.7 0.00 0.00 0.00 58 1018.7
20260507054107 42 55 1.7 1.7 0.00 0.00 0.00 61 1018.7
20260507053605 41 106 0.9 0.9 0.00 0.00 0.00 60 1018.4
20260507053104 41 105 0.0 0.0 0.00 0.00 0.00 63 1018.4
20260507052601 41 328 2.6 1.7 0.00 0.00 0.00 61 1018.2
20260507052057 40 97 0.9 0.9 0.00 0.00 0.00 64 1018.6
20260507051555 39 99 0.9 0.9 0.00 0.00 0.00 69 1018.6
20260507051052 39 73 0.0 0.0 0.00 0.00 0.00 74 1018.4
20260507050549 38 72 0.0 0.0 0.00 0.00 0.00 76 1018.6
20260507050045 38 73 0.0 0.0 0.00 0.00 0.00 81 1018.2
20260507045542 38 97 0.0 0.0 0.00 0.00 0.00 79 1018.1
20260507045039 38 74 0.9 0.9 0.00 0.00 0.00 80 1018.3
20260507044535 38 74 0.9 0.0 0.00 0.00 0.00 74 1018.2
20260507044032 37 73 0.0 0.0 0.00 0.00 0.00 75 1018.2
20260507043528 37 73 0.0 0.0 0.00 0.00 0.00 78 1018.4
20260507043026 37 73 0.9 0.9 0.00 0.00 0.00 79 1018.1
20260507042521 38 73 0.9 0.9 0.00 0.00 0.00 79 1018.3
20260507042017 37 73 0.0 0.0 0.00 0.00 0.00 75 1018.6
20260507041514 37 73 0.9 0.9 0.00 0.00 0.00 78 1018.6
20260507041011 37 73 0.9 0.9 0.00 0.00 0.00 79 1018.2
20260507040507 38 73 0.9 0.9 0.00 0.00 0.00 78 1018.2
20260507040003 38 73 0.9 0.9 0.00 0.00 0.00 74 1018.3
20260507035500 38 73 0.9 0.9 0.00 0.00 0.00 75 1018.4
20260507034956 39 74 0.9 0.0 0.00 0.00 0.00 73 1018.4
20260507034453 39 74 0.0 0.0 0.00 0.00 0.00 73 1018.4
20260507033951 39 73 0.9 0.0 0.00 0.00 0.00 70 1018.3
20260507033449 38 73 0.0 0.0 0.00 0.00 0.00 72 1018.7
20260507032946 38 73 0.9 0.9 0.00 0.00 0.00 75 1018.7
20260507032443 39 73 0.0 0.0 0.00 0.00 0.00 73 1018.6
20260507031939 39 73 0.9 0.0 0.00 0.00 0.00 74 1018.4
20260507031435 40 73 0.9 0.9 0.00 0.00 0.00 68 1018.6
20260507030932 40 72 1.7 1.7 0.00 0.00 0.00 72 1018.7
20260507030429 40 72 1.7 1.7 0.00 0.00 0.00 71 1018.7
20260507025927 40 83 0.9 0.9 0.00 0.00 0.00 72 1018.4
20260507025424 40 84 0.0 0.0 0.00 0.00 0.00 73 1018.8
20260507024921 41 84 0.0 0.0 0.00 0.00 0.00 74 1018.4
20260507024419 41 84 0.0 0.0 0.00 0.00 0.00 70 1018.7
20260507023914 41 84 0.0 0.0 0.00 0.00 0.00 71 1018.6
20260507023411 41 84 0.0 0.0 0.00 0.00 0.00 71 1018.4
20260507022909 41 84 0.0 0.0 0.00 0.00 0.00 62 1018.6
20260507022405 42 84 0.0 0.0 0.00 0.00 0.00 62 1018.6
20260507021901 42 84 0.0 0.0 0.00 0.00 0.00 60 1018.4
20260507021356 42 84 0.0 0.0 0.00 0.00 0.00 60 1018.4
20260507020854 42 83 0.9 0.9 0.00 0.00 0.00 61 1018.2
20260507020351 43 87 0.0 0.0 0.00 0.00 0.00 56 1018.4
20260507015848 43 88 0.0 0.0 0.00 0.00 0.00 56 1018.4
20260507015346 43 92 0.0 0.0 0.00 0.00 0.00 53 1018.6
20260507014843 42 92 0.0 0.0 0.00 0.00 0.00 54 1018.3
20260507014339 43 92 0.0 0.0 0.00 0.00 0.00 54 1018.4
20260507013835 43 92 0.0 0.0 0.00 0.00 0.00 53 1018.3
20260507013333 43 81 0.0 0.0 0.00 0.00 0.00 57 1018.2
20260507012830 44 80 0.0 0.0 0.00 0.00 0.00 51 1018.3
20260507012326 43 59 1.7 1.7 0.00 0.00 0.00 50 1018.3
20260507011823 44 73 0.0 0.0 0.00 0.00 0.00 49 1018.3
20260507011320 44 48 1.7 1.7 0.00 0.00 0.00 49 1018.2
20260507010820 44 73 0.9 0.9 0.00 0.00 0.00 49 1018.0
20260507010315 44 81 0.9 0.9 0.00 0.00 0.00 48 1018.0
20260507005813 45 93 0.9 0.9 0.00 0.00 0.00 47 1018.1
20260507005310 44 71 0.9 0.9 0.00 0.00 0.00 47 1018.0
20260507004806 45 59 0.9 0.9 0.00 0.00 0.00 47 1017.8
20260507004304 45 95 0.0 0.0 0.00 0.00 0.00 47 1017.9
20260507003800 45 345 1.7 2.6 0.00 0.00 0.00 45 1018.1
20260507003255 46 95 0.9 0.9 0.00 0.00 0.00 44 1017.9
20260507002751 46 133 0.9 0.9 0.00 0.00 0.00 44 1017.6
20260507002247 47 78 0.0 0.0 0.00 0.00 0.00 42 1017.6
20260507001745 47 53 2.6 3.5 0.00 0.00 0.00 42 1017.8
20260507001242 47 94 1.7 2.6 0.00 0.00 0.00 41 1017.8
20260507000738 48 239 4.3 5.2 0.00 0.00 0.00 41 1017.5
20260507000234 48 96 1.7 1.7 0.00 0.00 0.00 41 1017.6
20260506235731 48 333 2.6 2.6 0.00 0.00 0.00 41 1017.5
20260506235226 49 327 4.3 6.1 0.00 0.00 0.00 39 1017.5
20260506234723 49 299 5.2 7.0 0.00 0.00 0.00 39 1017.4
20260506234221 49 266 4.3 5.2 0.00 0.00 0.00 39 1017.7
20260506233718 49 344 5.2 6.1 0.00 0.00 0.00 38 1017.5
20260506233215 50 309 7.0 7.8 0.00 0.00 0.00 37 1017.5
20260506232711 50 59 1.7 1.7 0.00 0.00 0.00 40 1017.2
20260506232206 50 276 7.0 8.7 0.00 0.00 0.00 38 1017.6
20260506231704 50 346 3.5 2.6 0.00 0.00 0.00 39 1017.3
20260506231202 51 279 5.2 7.0 0.00 0.00 0.00 37 1017.4
20260506230658 50 44 1.7 1.7 0.00 0.00 0.00 42 1017.2
20260506230155 50 219 2.6 3.5 0.00 0.00 0.00 40 1017.2
20260506225652 50 297 1.7 2.6 0.00 0.00 0.00 40 1017.4
20260506225149 49 206 2.6 5.2 0.00 0.00 0.00 41 1017.3
20260506224645 50 28 2.6 3.5 0.00 0.00 0.00 40 1017.4
20260506224142 51 254 2.6 2.6 0.00 0.00 0.00 39 1017.4
20260506223638 51 103 0.0 0.0 0.00 0.00 0.00 40 1017.3
20260506223134 50 164 1.7 2.6 0.00 0.00 0.00 42 1017.3
20260506222631 50 359 7.0 7.8 0.00 0.00 0.00 39 1017.3
20260506222127 50 249 4.3 7.0 0.00 0.00 0.00 39 1017.4
20260506221625 51 246 6.1 7.0 0.00 0.00 0.00 39 1017.4
20260506221123 51 103 0.9 0.9 0.00 0.00 0.00 38 1017.3
20260506220620 51 137 1.7 2.6 0.00 0.00 0.00 38 1017.4
20260506220115 51 72 1.7 1.7 0.00 0.00 0.00 38 1017.1
20260506215612 51 58 1.7 1.7 0.00 0.00 0.00 37 1017.1
20260506215107 51 210 1.7 1.7 0.00 0.00 0.00 38 1017.5
20260506214604 51 264 1.7 2.6 0.00 0.00 0.00 38 1017.3
20260506214102 51 3 4.3 7.0 0.00 0.00 0.00 37 1017.1
20260506213600 51 302 2.6 3.5 0.00 0.00 0.00 37 1017.1
20260506213057 51 191 2.6 3.5 0.00 0.00 0.00 37 1017.2
20260506212553 51 330 3.5 5.2 0.00 0.00 0.00 36 1017.0
20260506212048 51 291 3.5 3.5 0.00 0.00 0.00 35 1017.1
20260506211544 51 146 0.9 0.9 0.00 0.00 0.00 35 1017.1
20260506211042 52 283 2.6 2.6 0.00 0.00 0.00 36 1017.1
20260506210538 52 81 2.6 3.5 0.00 0.00 0.00 35 1017.1
20260506210035 52 69 0.9 0.9 0.00 0.00 0.00 34 1017.1
20260506205532 52 3 1.7 3.5 0.00 0.00 0.00 36 1017.1
20260506205027 51 320 3.5 3.5 0.00 0.00 0.00 36 1017.1
20260506204525 51 224 3.5 5.2 0.00 0.00 0.00 35 1017.1
20260506204022 51 337 3.5 3.5 0.00 0.00 0.00 36 1017.3
20260506203520 51 179 4.3 5.2 0.00 0.00 0.00 37 1017.1
20260506203016 52 191 2.6 2.6 0.00 0.00 0.00 35 1017.1
20260506202514 52 218 3.5 6.1 0.00 0.00 0.00 35 1017.4
20260506202010 53 236 6.1 7.8 0.00 0.00 0.00 35 1017.2
20260506201508 52 116 0.9 0.9 0.00 0.00 0.00 34 1017.2
20260506201004 52 141 1.7 1.7 0.00 0.00 0.00 36 1017.3
20260506200500 51 248 5.2 6.1 0.00 0.00 0.00 35 1017.3
20260506195956 52 236 5.2 6.1 0.00 0.00 0.00 34 1017.5
20260506195454 52 200 3.5 3.5 0.00 0.00 0.00 35 1017.1
20260506194950 54 243 6.1 7.0 0.00 0.00 0.00 34 1017.3
20260506194448 55 220 2.6 3.5 0.00 0.00 0.00 32 1017.5
20260506193944 52 221 5.2 6.1 0.00 0.00 0.00 37 1017.5
20260506193442 53 112 4.3 6.1 0.00 0.00 0.00 34 1017.4
20260506192938 55 133 1.7 1.7 0.00 0.00 0.00 31 1017.3
20260506192435 55 226 11.3 13.9 0.00 0.00 0.00 33 1017.1
20260506191932 54 309 6.1 7.0 0.00 0.00 0.00 31 1017.3
20260506191428 53 223 8.7 8.7 0.00 0.00 0.00 35 1017.4
20260506190925 51 139 1.7 1.7 0.00 0.00 0.00 37 1017.4
20260506190422 52 208 3.5 3.5 0.00 0.00 0.00 37 1017.4
20260506185919 52 183 1.7 2.6 0.00 0.00 0.00 34 1017.3
20260506185416 53 276 5.2 7.0 0.00 0.00 0.00 32 1017.1
20260506184913 51 126 3.5 5.2 0.00 0.00 0.00 37 1017.4
20260506184410 51 301 1.7 2.6 0.00 0.00 0.00 36 1017.3
20260506183907 53 203 1.7 1.7 0.00 0.00 0.00 34 1017.2
20260506183402 53 210 3.5 2.6 0.00 0.00 0.00 34 1017.4
20260506182900 50 334 3.5 3.5 0.00 0.00 0.00 40 1017.3
20260506182357 52 190 2.6 3.5 0.00 0.00 0.00 37 1017.3
20260506181854 51 209 3.5 5.2 0.00 0.00 0.00 39 1017.7
20260506181352 50 225 5.2 7.0 0.00 0.00 0.00 42 1017.7
20260506180849 49 257 4.3 5.2 0.00 0.00 0.00 41 1017.5
20260506180345 50 233 3.5 5.2 0.00 0.00 0.00 40 1017.6
20260506175841 50 185 1.7 1.7 0.00 0.00 0.00 39 1017.6
20260506175338 50 119 3.5 5.2 0.00 0.00 0.00 38 1017.6
20260506174835 51 249 2.6 2.6 0.00 0.00 0.00 36 1017.9
20260506174333 50 210 4.3 5.2 0.00 0.00 0.00 40 1018.0
20260506173830 50 225 6.1 7.0 0.00 0.00 0.00 39 1017.9
20260506173327 50 257 5.2 7.8 0.00 0.00 0.00 39 1017.8
20260506172824 49 292 3.5 3.5 0.00 0.00 0.00 40 1018.1
20260506172321 50 303 4.3 3.5 0.00 0.00 0.00 41 1017.9
20260506171818 51 244 3.5 5.2 0.00 0.00 0.00 37 1017.9
20260506171315 51 140 1.7 1.7 0.00 0.00 0.00 38 1018.1
20260506170813 51 227 5.2 6.1 0.00 0.00 0.00 37 1017.8
20260506170308 51 213 2.6 2.6 0.00 0.00 0.00 39 1018.0
20260506165808 50 220 7.8 8.7 0.00 0.00 0.00 39 1018.1
20260506165306 50 325 2.6 2.6 0.00 0.00 0.00 39 1018.1
20260506164801 50 191 1.7 2.6 0.00 0.00 0.00 37 1018.0
20260506164258 50 174 2.6 2.6 0.00 0.00 0.00 39 1017.9
20260506163755 50 277 5.2 6.1 0.00 0.00 0.00 38 1018.0
20260506163250 49 128 2.6 2.6 0.00 0.00 0.00 38 1018.2
20260506162746 49 342 1.7 1.7 0.00 0.00 0.00 39 1018.2
20260506162244 50 93 0.9 0.9 0.00 0.00 0.00 37 1018.2
20260506161741 49 123 0.9 1.7 0.00 0.00 0.00 40 1018.1
20260506161238 49 243 1.7 1.7 0.00 0.00 0.00 39 1018.3
20260506160736 50 322 3.5 3.5 0.00 0.00 0.00 39 1018.3
20260506160232 52 251 5.2 5.2 0.00 0.00 0.00 36 1018.0
20260506155731 52 102 1.7 2.6 0.00 0.00 0.00 39 1018.2
20260506155227 51 294 5.2 7.0 0.00 0.00 0.00 36 1018.1
20260506153335 48 251 5.2 6.1 0.00 0.00 0.00 41 1018.0
20260506152831 49 221 5.2 6.1 0.00 0.00 0.00 43 1017.9
20260506152329 50 213 5.2 7.0 0.00 0.00 0.00 45 1018.0
20260506151827 50 181 3.5 5.2 0.00 0.00 0.00 41 1018.1
20260506151323 50 231 2.6 2.6 0.00 0.00 0.00 42 1018.1
20260506150821 48 248 3.5 3.5 0.00 0.00 0.00 44 1018.1
20260506150318 48 198 6.1 7.0 0.00 0.00 0.00 46 1018.2
20260506145814 48 114 2.6 2.6 0.00 0.00 0.00 46 1018.0
20260506145311 48 188 4.3 6.1 0.00 0.00 0.00 44 1017.9
20260506144808 47 126 0.9 0.9 0.00 0.00 0.00 44 1018.1
20260506144305 46 150 5.2 5.2 0.00 0.00 0.00 48 1018.2
20260506143803 46 128 4.3 3.5 0.00 0.00 0.00 48 1018.2
20260506143300 46 161 2.6 2.6 0.00 0.00 0.00 48 1017.9